STARLINK-6124 (56126 NORAD) Tracking and Keplerian Element Data

This shows tracking and keplerian element data for the satellite.

Feedback or suggestion? Click here.




ElementValue
Catalog56126
NameSTARLINK-6124
Epoch Orbit656
Epoch Day127.25001157
Epoch Year2023
RAAN33.6998
Inclination43.0015
Eccentricity0.0001681
Argument of Perigee296.4673
Mean Anonmoly319.6439
Mean Motion15.48870321
Decay Rate0.00051463
L11 56126U 23046AL 23127.25001157 .00051463 00000+0 93181-3 0 9994
L22 56126 43.0015 33.6998 0001681 296.4673 319.6439 15.48870321 6567



Live tracking and technical data element details for STARLINK-6124 (NORAD 56126). STARLINK-6124 can be tracked NOW for your location showing map with azimuth and elevation plus other details from your city location.







IsCatalogInMostPopularTable: catalog: 56126, numindb: 3
Update: records affected: 1



GetName: 56126 STARLINK-6124

Hit Count: updated at: Mon, 05 Jun 2023 00:21:11 GMT